Flag for Uruguay Weather past 2 weeks in Maldonado, Uruguay

Now
55 °F

Passing clouds.


Feels Like: 51 °F
Forecast: 48 / 65 °F
Wind: 18 mph from South

Location: Capitan Corbeta

Current Time: Sep 24, 2014 at 2:09:56 AM

Latest Report: Sep 24, 2014 at 1:00 AM


Visibility: N/A

Pressure: 29.86 "Hg

Humidity: 88%

Dew point: 52 °F

Location of MaldonadoLocation

Historic Weather in Maldonado — Graph

°F

Maldonado temperature yesterday

Maximum temperature yesterday: 72 °F (at 12:00 PM)
Minimum temperature yesterday: 54 °F (at 5:00 AM)
Average temperature yesterday: 60 °F

Past Weeks' High & Low Weather Summary

 TemperatureHumidityPressure
High75 °F (Sep 9, 9:00 AM)100% (Sep 9, 3:00 PM)30.18 "Hg (Sep 9, 3:00 PM)
Low41 °F (Sep 12, 7:00 AM)34% (Sep 11, 4:00 PM)29.50 "Hg (Sep 9, 9:00 AM)
Average57 °F81%29.99 "Hg
* Reported Sep 9 1:00 AM — Sep 24 1:00 AM, Maldonado, Weather by CustomWeather, © 2014

Note: Actual official high and low records may vary slightly from our data, if they occured in-between our weather recording intervals... More about our weather records

Advertising

Maldonado weather history for previous 24 hours

 ConditionsComfort  
Time TempWeatherWind HumidityBarometerVisibility
1:00 AM
Sep 24
55 °FPassing clouds.18 mph88%29.86 "HgN/A
12:00 AM55 °FMostly cloudy.12 mph94%29.86 "Hg5 mi
11:00 PM
Sep 23
59 °FMostly cloudy.9 mph94%29.86 "HgN/A
10:00 PM59 °FMostly cloudy.9 mph94%29.83 "HgN/A
9:00 PM59 °FRain. Mostly cloudy.9 mph88%29.89 "Hg5 mi
8:00 PM59 °FDrizzle. Mostly cloudy.8 mph88%29.86 "Hg5 mi
7:00 PM59 °FMostly cloudy.8 mph88%29.86 "HgN/A
6:00 PM64 °FPassing clouds.13 mph68%29.80 "HgN/A
5:00 PM64 °FPartly sunny.13 mph68%29.80 "HgN/A
4:00 PM64 °FScattered clouds.13 mph68%29.80 "HgN/A
3:00 PM64 °FPartly sunny.13 mph68%29.80 "HgN/A
2:00 PM64 °FPartly sunny.18 mph73%29.83 "HgN/A
1:00 PM66 °FPartly sunny.13 mph68%29.80 "HgN/A
12:00 PM72 °FScattered clouds.5 mph50%29.83 "HgN/A
11:00 AM68 °FSunny.5 mph56%29.86 "Hg10 mi
9:00 AM61 °FSunny.3 mph88%29.89 "Hg10 mi
8:00 AM55 °FSunny.3 mph88%29.89 "Hg10 mi
7:00 AM54 °FSunny.3 mph100%29.89 "Hg10 mi
6:00 AM54 °FSunny.3 mph88%29.89 "Hg10 mi
5:00 AM54 °FClear.3 mph94%29.92 "Hg10 mi
4:00 AM55 °FClear.5 mph88%29.92 "Hg10 mi
3:00 AM55 °FClear.8 mph88%29.92 "Hg10 mi
2:00 AM55 °FClear.8 mph94%29.95 "Hg10 mi
Weather by CustomWeather, © 2014

See weather overviewHow to use our weather pages